Flag for Norway Weather past 2 weeks in Røyken, Norway

Now
41 °F

Passing clouds.


Feels Like: 41 °F
Forecast: 41 / 63 °F
Wind: 1 mph from Southwest

Location: Oslo / Fornebu


UV Index: 0 (Low)

Visibility: N/A


Pressure: 30.15 "Hg

Humidity: 93%

Dew point: 39 °F

Location of RøykenLocation

Historic Weather in Røyken

°F

Røyken temperature yesterday

Maximum temperature yesterday: 52 °F (at 11:20 AM)
Minimum temperature yesterday: 41 °F (at 10:50 PM)
Average temperature yesterday: 45 °F

Past Weeks' High & Low Weather Summary

 TemperatureHumidityPressure
High52 °F (Apr 20, 11:20 AM)100% (Apr 6, 1:50 AM)30.33 "Hg (Apr 6, 1:50 AM)
Low37 °F (Apr 14, 1:20 PM)49% (Apr 18, 3:20 AM)29.12 "Hg (Apr 12, 7:20 PM)
Average45 °F83%29.78 "Hg
* Reported Apr 6 1:20 AM — Apr 21 1:50 AM, Røyken, Weather by CustomWeather, © 2014

Note: Actual official high and low records may vary slightly from our data, if they occured in-between our weather recording intervals... More about our weather records

Advertising

Historic Weather Conditions — Data for Previous 24 hours

 ConditionsComfort  
Time TempWeatherWind HumidityBarometerVisibility
1:50 AM
Apr 21
41 °FPassing clouds.3 mph93%30.15 "HgN/A
1:20 AM41 °FPassing clouds.3 mph100%30.15 "HgN/A
12:50 AM41 °FLow clouds.5 mph100%30.15 "HgN/A
12:20 AM41 °FPassing clouds.7 mph100%30.15 "HgN/A
11:50 PM
Apr 20
41 °FPassing clouds.3 mph100%30.15 "HgN/A
10:50 PM41 °FPassing clouds.9 mph100%30.15 "HgN/A
10:20 PM43 °FPassing clouds.10 mph93%30.15 "HgN/A
9:50 PM43 °FPassing clouds.12 mph93%30.15 "HgN/A
9:20 PM43 °FPartly sunny.12 mph93%30.15 "HgN/A
8:50 PM43 °FPartly sunny.13 mph93%30.12 "HgN/A
8:20 PM43 °FPartly sunny.13 mph93%30.12 "HgN/A
7:50 PM43 °FPartly sunny.12 mph93%30.12 "HgN/A
7:20 PM43 °FLow clouds.13 mph93%30.12 "HgN/A
6:50 PM43 °FLow clouds.14 mph93%30.12 "HgN/A
6:20 PM43 °FLow clouds.15 mph93%30.12 "HgN/A
5:50 PM43 °FLow clouds.16 mph93%30.12 "HgN/A
5:20 PM45 °FPartly sunny.18 mph93%30.15 "HgN/A
4:50 PM45 °FPartly sunny.17 mph93%30.15 "HgN/A
4:20 PM45 °FPartly sunny.17 mph93%30.15 "HgN/A
3:50 PM46 °FPartly sunny.18 mph87%30.15 "HgN/A
3:20 PM46 °FPartly sunny.18 mph87%30.15 "HgN/A
2:50 PM46 °FPartly sunny.18 mph87%30.15 "HgN/A
2:20 PM46 °FPartly sunny.18 mph87%30.15 "HgN/A
1:50 PM48 °FScattered clouds.20 mph82%30.15 "HgN/A
1:20 PM48 °FPassing clouds.17 mph82%30.15 "HgN/A
12:50 PM50 °FPassing clouds.20 mph82%30.15 "HgN/A
12:20 PM52 °FCool.18 mph72%30.15 "HgN/A
11:50 AM50 °FCool.17 mph76%30.15 "HgN/A
11:20 AM52 °FCool.16 mph72%30.15 "HgN/A
10:50 AM50 °FCool.17 mph76%30.18 "HgN/A
10:20 AM50 °FCool.15 mph76%30.18 "HgN/A
9:50 AM48 °FCool.10 mph82%30.18 "HgN/A
9:20 AM46 °FCool.13 mph87%30.18 "HgN/A
8:50 AM46 °FCool.12 mph87%30.18 "HgN/A
8:20 AM46 °FPassing clouds.12 mph87%30.18 "HgN/A
7:50 AM45 °FPassing clouds.13 mph93%30.18 "HgN/A
7:20 AM45 °FScattered clouds.13 mph87%30.18 "HgN/A
6:50 AM45 °FPartly sunny.15 mph87%30.18 "HgN/A
6:20 AM45 °FPassing clouds.12 mph93%30.18 "HgN/A
5:50 AM45 °FPassing clouds.14 mph87%30.18 "HgN/A
5:20 AM45 °FPassing clouds.16 mph87%30.18 "HgN/A
4:50 AM45 °FPassing clouds.14 mph87%30.18 "HgN/A
4:20 AM45 °FPassing clouds.14 mph93%30.18 "HgN/A
3:50 AM45 °FPassing clouds.13 mph93%30.21 "HgN/A
3:20 AM45 °FPassing clouds.14 mph93%30.21 "HgN/A
Weather by CustomWeather, © 2014

See weather overview